{"data":{"norad_id":66136,"epoch":"2026-09-20T13:41:03.837120Z","epoch_age_seconds":94067,"freshness":"FRESH","line1":"1 66136U 25237Y   26263.57018330  .00020694  00000+0  62122-3 0  9993","line2":"2 66136  53.1581 211.1551 0001665  76.9035 283.2154 15.34434769 52492","mean_motion":15.34434769,"eccentricity":0.0001665,"inclination_deg":53.1581,"raan_deg":211.1551,"arg_perigee_deg":76.9035,"mean_anomaly_deg":283.2154,"bstar":0.00062122,"rev_number":5249,"period_min":93.845631570149,"perigee_km":461.46091866915,"apogee_km":463.7388840573,"semimajor_km":6840.7369013632,"source":"CELESTRAK","updated_at":"2026-09-21T09:00:35.810840Z"}}